www.pogodaiklimat.ru

Погода и климат >> Архив погоды >> Россия >> Якутия >> Амга


ПОГОДА в Амге

  • Прогноз погоды в Амге
  • Монитор погоды в Амге
  • Климат города

АРХИВ ПОГОДЫ в Амге

Время (UTC), дата Ветер
(напр.,м/с)
 
Видим.   Явления Облачность Т
(С)
Тd
(С)
f
(%)
Тe
(С)
Тes
(С)
Комфортность P
(гПа)
Po
(гПа)
Тmin
(С)
Tmax
(С)
R
(мм)
R24
(мм)
S
(см)
03 9.07 В 3 4000 м мгла 6/0
[Ci sp]
+30.8 +15.5 40 +33 +43 душно 1012.1 995.7
06 9.07 СВ 2 4000 м в посл. час снег {морось} 10/0
[Ci sp]
+32.0 +15.7 37 +34 +42 душно 1010.1 993.8
09 9.07 СВ 4 4000 м мгла 10/0
[Ci sp]
+31.8 +16.4 40 +35 +36 очень
душно
1008.6 992.4
12 9.07 В 1 4000 м мгла 10/0
[Ci sp]
+26.0 +17.4 59 +30 +30 душно 1009.2 992.6 +33.0
15 9.07 СЗ 1 4000 м мгла 10/0
[Ac trans Ci fib]
+19.0 +16.7 87 +22 +22 комфорт 1009.6 992.6
18 9.07 штиль 0 4000 м мгла 10/0
[Ac trans Ci fib]
+15.1 +13.9 93 +15 +15 1009.9 992.6
21 9.07 штиль 0 4000 м мгла 6/0
[Ci fib]
+16.8 +14.7 87 +17 +19 1009.4 992.3
00 10.07 штиль 0 4000 м мгла 8/0
[Ac trans Ci fib]
+24.6 +18.3 68 +29 +38 душно 1008.1 991.5 +10.4
03 10.07 СЗ 1 50 км 8/0
[Cc]
+31.9 +11.9 29 +32 +45 жарко 1006.1 989.8
06 10.07 штиль 0 50 км 10/4 1000 м
[Cu Sc Cc]
+32.9 +12.0 28 +33 +39 жарко 1003.8 987.6
09 10.07 В 2 50 км 10/0
[Cs]
+31.0 +13.4 34 +32 +34 жарко 1002.6 986.4
12 10.07 штиль 0 20 км 10/0
[Ac trans Cs]
+23.7 +17.4 68 +28 +28 душно 1003.0 986.4 +33.3
15 10.07 СЗ 2 20 км 10/0
[Ac trans Ci fib]
+18.0 +15.3 84 +19 +19 1003.2 986.2
18 10.07 СЗ 1 10 км мгла 10/0
[Ci fib]
+13.1 +12.2 94 +13 +13 1003.2 986.0
21 10.07 штиль 0 10 км дым 4/0
[Ac cast]
+15.5 +13.2 86 +15 +17 1002.9 985.8
00 11.07 штиль 0 4000 м дым 6/0
[Ac trans Ci fib]
+24.0 +15.6 59 +27 +36 жарко 1002.2 985.6 +12.4
03 11.07 ЮЗ 3 10 км дым 10/0
[Ac trans Ci fib]
+28.7 +15.6 45 +32 +39 душно 1000.9 984.6
06 11.07 Ю 5 4000 м дым 10/3
[Cb calv Ac trans Ci fib]
+29.4 +13.1 37 +31 +33 жарко 999.6 983.3
09 11.07 З 3 20 км в посл. час гроза 10/5 600 м
[Cb calv Ac trans Ci fib]
+25.6 +12.5 44 +27 +28 жарко 999.4 982.9
12 11.07 СЗ 1 20 км гроза, ливневой дождь 10/8 1000 м
[Cb calv Ac trans Ci fib]
+19.1 +16.3 84 +22 +22 комфорт 1001.6 984.7 +31.1 0.8
15 11.07 штиль 0 20 км {гроза, ливн. осадки} 10/3 1000 м
[Cb calv Ac trans Ci fib]
+17.1 +15.6 91 +17 +17 1001.6 984.6
18 11.07 З 1 20 км местами туман поземный {гроза, ливн. осадки} 10/0
[Ac trans Ci fib]
+14.0 +13.6 97 +14 +14 1001.6 984.4
21 11.07 З 1 20 км местами туман поземный 10/3
[Cb calv Ac trans Ci fib]
+14.5 +13.4 93 +15 +16 1001.6 984.5
00 12.07 Ю 1 50 км 10/3 600 м
[Cb calv Ac trans Ci fib]
+19.7 +15.7 78 +23 +27 комфорт 1000.9 984.1 +13.1 0.3
03 12.07 Ю 2 20 км 10/3 600 м
[Cb calv Ac trans Ci fib]
+21.0 +17.3 79 +26 +30 душно 1000.6 983.9
06 12.07 З 3 10 км дым 10/3 600 м
[Cb calv Ac trans Ci fib]
+25.9 +15.2 52 +29 +32 душно 998.4 982.0
09 12.07 ЮЗ 4 10 км дым 10/3 600 м
[Cb calv Ac trans Ci fib]
+26.3 +15.5 51 +29 +30 жарко 997.9 981.5
12 12.07 СЗ 1 10 км дым 10/4 600 м
[Cb calv Ac trans Ci fib]
+20.9 +17.7 82 +26 +26 душно 998.2 981.6 +26.3
15 12.07 СЗ 1 10 км дым 10/4 600 м
[Cb calv Ac trans Ci fib]
+15.9 +14.9 94 +17 +17 998.7 981.7
18 12.07 штиль 0 10 км дым 10/3 600 м
[Cb calv Ac trans Ci fib]
+14.8 +14.1 96 +14 +14 998.9 981.9
21 12.07 штиль 0 20 км дым 10/3 600 м
[Cb calv Ac trans Ci fib]
+16.7 +15.3 91 +17 +17 999.5 982.5
00 13.07 штиль 0 10 км дым 10/0
[Ac trans Ci fib]
+20.3 +16.7 80 +23 +30 комфорт 999.4 982.6 +14.8
03 13.07 СВ 3 4000 м дым 10/0
[Ac trans Ci fib]
+23.7 +16.4 64 +27 +35 жарко 998.8 982.3
06 13.07 СВ 3 4000 м дым 10/0
[Ac trans Ci fib]
+26.6 +16.6 54 +30 +35 душно 997.3 981.0
09 13.07 СВ 4 4000 м дым 10/5 600 м
[Cb cap Ac trans Ci fib]
+26.2 +16.3 54 +30 +30 душно 997.4 981.0
12 13.07 С 1 10 км гроза без осадков {ливн. осадки} 10/6 600 м
[Cb calv Ac trans Ci fib]
+22.0 +14.2 61 +25 +25 комфорт 998.4 981.8 +27.2 0.0
15 13.07 С 2 10 км дым {гроза} 10/8 600 м
[Cb calv Ac trans]
+19.2 +15.5 79 +21 +21 комфорт 999.1 982.3
18 13.07 СВ 1 4000 м дым {гроза} 10/8 600 м
[Cb calv Ac trans]
+17.6 +15.2 86 +19 +19 999.0 982.1
21 13.07 штиль 0 50 км дым 10/10 600 м
[Cb calv]
+17.7 +15.8 89 +18 +18 999.1 982.2
00 14.07 С 2 4000 м дым 10/10
[Cb calv]
+19.7 +17.6 88 +23 +23 комфорт 999.1 982.3 +16.4
03 14.07 В 4 4000 м дым 10/8 600 м
[Cb calv Ac trans Ci fib]
+23.9 +18.4 71 +28 +29 душно 998.6 982.1
06 14.07 Ю 3 20 км в посл. час ливневой дождь 10/10 600 м
[Cb calv]
+23.1 +18.7 76 +29 +29 очень
душно
998.7 982.2
09 14.07 В 2 20 км слабый ливневой дождь 10/10 600 м
[Cb calv]
+20.7 +19.3 92 +26 +26 душно 999.8 983.1
12 14.07 СВ 2 20 км в посл. час ливневой дождь 10/10 600 м
[Cb calv]
+20.1 +19.6 97 +24 +24 комфорт 1000.0 983.3 +25.3 3
15 14.07 ЮВ 1 20 км слабый ливневой дождь 10/10 600 м
[Cb calv]
+19.1 +18.5 96 +22 +22 комфорт 1000.8 983.9
18 14.07 В 3 50 км {ливн. осадки} 10/10 600 м
[Cb calv]
+17.7 +17.4 98 +18 +18 1001.3 984.3
21 14.07 ЮВ 2 20 км местами туман поземный 10/10 600 м
[Cb calv]
+18.9 +18.1 95 +21 +21 комфорт 1001.5 984.6
00 15.07 Ю 2 50 км 8/5 600 м
[Cb calv Ac trans Ci fib]
+21.1 +18.4 85 +25 +28 комфорт 1002.0 985.3 +17.7 6
03 15.07 ЮЗ 4 50 км 10/6 600 м
[Cb calv Ac trans Ci fib]
+23.1 +18.0 73 +29 +31 очень
душно
1002.4 985.7
06 15.07 З 3 10 км гроза без осадков {туман} 10/6 600 м
[Cb calv Ac trans Ci fib]
+23.4 +18.5 74 +30 +31 очень
душно
1002.5 985.9
09 15.07 ЮЗ 5 10 км мгла {гроза, туман} 10/6 600 м
[Cb calv Ac trans Ci fib]
+23.9 +17.7 68 +28 +28 душно 1002.6 986.1
12 15.07 Ю 1 2000 м мгла {гроза} 10/0
[Ac trans Ci fib]
+18.3 +15.6 84 +20 +20 1005.0 988.0 +25.0
15 15.07 ЮЗ 2 2000 м мгла 10/8
[Cb calv Ac trans Ci fib]
+16.3 +14.0 86 +16 +16 1025.4 988.3
18 15.07 ЮЗ 1 2000 м мгла 10/8
[Cb calv Ac trans Ci fib]
+15.1 +13.9 93 +16 +16 1005.7 988.5
21 15.07 штиль 0 2000 м мгла 8/8 600 м
[Sc Ac trans]
+15.9 +14.0 88 +16 +16 1006.1 988.9
00 16.07 З 3 10 км мгла 10/4 600 м
[Cb calv Ac trans Ci fib]
+18.3 +12.2 68 +19 +21 1005.6 988.6 +14.3

 

Местоположение метеостанции Амга (Якутия, Россия): широта 60.90 долгота 131.90 высота над уровнем моря 146 м.

В архиве по умолчанию представлена погода в Амге за последнюю неделю. Архивные данные за месяц целиком и за предыдущие месяцы, начиная с января 2011 года, Вы можете получить, выбрав интересующий диапазон дат из раскрывающегося списка и нажав кнопку "Ввод!".


*Определитесь, кто Вы:
робот инопланетянин человек

Внимание! Время в таблицах - всемирное. Для получения местного времени необходимо прибавить поправку, которая в Амге равна 9 ч.

Смотрите также архив погоды в соседних городах и на ближайших метеорологических станциях:

Погода в Тегюльте (Якутия, Россия) (114 км)
Погода в Чурапче (Якутия, Россия) (131 км)
Погода в Усть-Мае (Якутия, Россия) (149 км)
Погода в Усть-Миле (Якутия, Россия) (154 км)
Погода в Покровске (Якутия, Россия) (163 км)
Погода в Якутске (Якутия, Россия) (173 км)
Погода в Ытык-Кюёле (Якутия, Россия) (184 км)
Погода в Охотском Перевозе (Якутия, Россия) (220 км)
Погода в Намцах (Якутия, Россия) (236 км)
Погода в Крест-Хальджае (Якутия, Россия) (251 км)

Пояснения к столбцам:

Ветер - указаны скорость ветра в м/с - средняя за 10 мин, порывы в срок и между сроками (в фигурных скобках) и направление, откуда дует ветер: С - северный, СВ - северо-восточный, В - восточный, ЮВ - юго-восточный, Ю - южный, ЮЗ - юго-западный, З - западный, СЗ - северо-западный.
Видимость - горизонтальная дальность видимости в метрах или километрах. При видимости от 1 до 10 км при отсутствии осадков обычно наблюдается дымка, при ухудшении видимости до 1 км и менее - туман. В сухую погоду видимость может ухудшаться дымом, пылью или мглою.
Явления - указаны атмосферные явления, наблюдавшиеся в срок или в последний час перед сроком; фигурными скобками обозначены явления, наблюдавшиеся между сроками (за 1-3 часа до срока); квадратными скобками обозначены град или гололедные отложения с указанием их диаметра в мм.
Облачность - указаны через наклонную черту общая и нижняя облачность в баллах и высота нижней границы облаков в метрах; квадратными скобками обозначены формы облаков: Ci - перистые, Cs - перисто-слоистые, Cc - перисто-кучевые, Ac - высококучевые, As - высокослоистые, Sc - слоисто-кучевые, Ns - слоисто-дождевые, Cu - кучевые, Cb - кучево-дождевые. Подробнее классификацию облаков см. в Атласе облаков (PDF).
T - Температура воздуха - температура, измеренная на высоте 2 м над землей.
Td - Температура точки росы - температура, при понижении до которой содержащийся в воздухе водяной пар достигнет насыщения.
f - Относительная влажность воздуха - влажноcть воздуха, измеренная на высоте 2 м над землей.
Te - Эффективная температура - температура, которую ощущает одетый по сезону человек в тени. Характеристика душности погоды. При расчете учитывается влияние влажности воздуха и скорости ветра на теплоощущения человека.
Tes - Эффективная температура на солнце - температура, которую ощущает человек, с поправкой на солнечный нагрев. Характеристика знойности погоды. Зависит от высоты солнца над горизонтом, облачности и скорости ветра. Ночью, в пасмурную погоду, а также при ветре 12 м/с и более поправка равна нулю.
P - Атмосферное давление - приведенное к уровню моря атмосферное давление.
Po - Атмосферное давление - измеренное на уровне метеостанции атмосферное давление.
Tmin - Минимальная температура - минимум температуры воздуха на высоте 2 м над землей.
Tmax - Максимальная температура - максимум температуры воздуха на высоте 2 м над землей.
R - Количество осадков - Количество выпавших осадков за период времени, мм. При наведении курсора мыши на число - период времени, за который выпало указанное количество осадков.
R24 - Количество осадков - Количество выпавших осадков за 24 часа, мм.
S - Снежный покров - Высота снежного покрова, см. При наведении курсора мыши на число - состояние снежного покрова и степень покрытия местности в баллах.